Flag for United Kingdom Weather past 2 weeks in Reading, England, United Kingdom

Now
61 °F

Sunny.


Feels Like: 61 °F
Forecast: 39 / 63 °F
Wind: 14 mph from Northeast

Location: Benson

Current Time: Apr 21, 2015 at 2:35:54 PM

Latest Report: Apr 21, 2015 at 1:50 PM


Visibility: 10 mi

Pressure: 30.54 "Hg

Humidity: 42%

Dew point: 37 °F

Location of ReadingLocation

Historic Weather in Reading — Graph

°F

Reading temperature yesterday

Maximum temperature yesterday: 64 °F (at 3:50 PM)
Minimum temperature yesterday: 32 °F (at 3:50 AM)
Average temperature yesterday: 48 °F

Past Weeks' High & Low Weather Summary

 TemperatureHumidityPressure
High72 °F (Apr 15, 2:50 PM)100% (Apr 6, 10:50 PM)30.63 "Hg (Apr 6, 10:50 PM)
Low30 °F (Apr 7, 5:50 AM)35% (Apr 11, 1:50 PM)29.86 "Hg (Apr 11, 3:50 AM)
Average50 °F71%30.27 "Hg
* Reported Apr 6 12:50 PM — Apr 21 12:50 PM, Reading, Weather by CustomWeather, © 2015

Note: Actual official high and low records may vary slightly from our data, if they occured in-between our weather recording intervals... More about our weather records

Advertising

Reading weather history for previous 24 hours

 ConditionsComfort  
Time TempWeatherWind HumidityBarometerVisibility
12:50 PM
Tue, Apr 21
59 °FSunny.13 mph45%30.54 "Hg10 mi
11:50 AM57 °FSunny.10 mph51%30.57 "Hg10 mi
10:50 AM55 °FSunny.12 mph55%30.57 "Hg10 mi
9:50 AM54 °FSunny.9 mph58%30.54 "Hg10 mi
8:50 AM48 °FSunny.7 mph71%30.54 "Hg10 mi
7:50 AM41 °FSunny.5 mph87%30.54 "Hg10 mi
6:50 AM37 °FFog.5 mph87%30.54 "Hg5 mi
5:50 AM36 °FHaze.6 mph93%30.54 "Hg4 mi
4:50 AM37 °FClear.3 mph93%30.51 "Hg10 mi
3:50 AM37 °FClear.5 mph87%30.51 "Hg10 mi
2:50 AM34 °FClear.5 mph93%30.51 "Hg5 mi
1:50 AM37 °FClear.5 mph87%30.51 "HgN/A
12:50 AM37 °FClear.5 mph87%30.51 "HgN/A
11:50 PM
Mon, Apr 20
39 °FClear.2 mph87%30.48 "Hg10 mi
10:50 PM46 °FClear.2 mph76%30.48 "Hg10 mi
9:50 PM46 °FClear.5 mph82%30.45 "Hg10 mi
8:50 PM48 °FSunny.7 mph76%30.45 "Hg10 mi
7:50 PM54 °FSunny.7 mph67%30.42 "Hg10 mi
6:50 PM59 °FSunny.8 mph55%30.42 "Hg10 mi
5:50 PM63 °FSunny.10 mph42%30.39 "Hg10 mi
4:50 PM64 °FSunny.9 mph46%30.39 "Hg10 mi
3:50 PM64 °FPartly sunny.9 mph46%30.39 "HgN/A
2:50 PM63 °FPartly sunny.12 mph49%30.42 "HgN/A
Weather by CustomWeather, © 2015

See weather overviewHow to use our weather pages